DW7571 Weather Reports


time (UTC)temp
C
wind
direction
speed
KPH
gust
KPH
rain 1hr
cm
rain 24hr
cm
rain mn
cm
humidity
%
barometer
mb
20260503182902 16 244 24.1 24.1 0.00 0.00 0.00 36 1011.2
20260503181902 16 270 17.7 29.0 0.00 0.00 0.00 38 1011.2
20260503180402 16 255 8.0 32.2 0.00 0.00 0.00 43 1011.5
20260503174902 15 237 25.7 33.8 0.00 0.00 0.00 41 1011.9
20260503173401 16 249 19.3 22.5 0.00 0.00 0.00 43 1011.9
20260503171902 15 205 8.0 27.4 0.00 0.00 0.00 42 1012.2
20260503170901 15 245 9.7 25.7 0.00 0.00 0.00 42 1012.2
20260503130902 9 245 9.7 17.7 0.00 0.00 0.00 51 1013.9
20260503110402 5 232 6.4 11.3 0.00 0.00 0.00 61 1013.5
20260503080902 3 216 3.2 4.8 0.00 0.00 0.00 57 1014.6
20260503054402 2 225 3.2 3.2 0.00 0.00 0.00 61 1015.6
20260503053401 2 231 3.2 3.2 0.00 0.00 0.00 61 1015.6
20260503051902 2 221 3.2 3.2 0.00 0.00 0.00 60 1015.6
20260503050401 2 223 3.2 4.8 0.00 0.00 0.00 60 1015.6
20260503044902 3 238 3.2 3.2 0.00 0.00 0.00 59 1015.9
20260503043401 3 218 3.2 4.8 0.00 0.00 0.00 58 1015.9
20260503041902 3 238 3.2 3.2 0.00 0.00 0.00 57 1015.9
20260503040401 3 246 3.2 4.8 0.00 0.00 0.00 57 1015.9
20260503035402 3 226 6.4 6.4 0.00 0.00 0.00 59 1015.9
20260503033901 2 228 1.6 3.2 0.00 0.00 0.00 59 1015.9
20260503032401 3 249 3.2 3.2 0.00 0.00 0.00 59 1016.3
20260503030902 3 206 0.0 3.2 0.00 0.00 0.00 59 1016.3
20260503025401 3 209 0.0 3.2 0.00 0.00 0.00 58 1016.3
20260503022402 4 209 0.0 0.0 0.00 0.00 0.00 55 1016.3
20260503020901 5 208 0.0 0.0 0.00 0.00 0.00 52 1016.3
20260503015401 5 230 3.2 3.2 0.00 0.00 0.00 50 1016.3
20260503013902 6 241 3.2 4.8 0.00 0.00 0.00 48 1016.3
20260503012901 6 218 3.2 4.8 0.00 0.00 0.00 47 1015.9
20260503011402 6 225 3.2 6.4 0.00 0.00 0.00 46 1015.9
20260503003902 7 276 6.4 11.3 0.00 0.00 0.00 43 1015.9
20260503002402 8 233 3.2 9.7 0.00 0.00 0.00 44 1015.6
20260503001401 8 296 6.4 9.7 0.00 0.00 0.00 41 1015.6
20260502235902 9 322 6.4 9.7 0.00 0.00 0.00 40 1015.6
20260502234401 8 294 6.4 11.3 0.00 0.00 0.00 41 1015.6
20260502232901 8 220 4.8 11.3 0.00 0.00 0.00 43 1015.9
20260502225901 8 328 3.2 9.7 0.00 0.00 0.00 42 1015.9
20260502224401 9 227 4.8 12.9 0.00 0.00 0.00 41 1015.9
20260502221402 8 319 9.7 12.9 0.00 0.00 0.00 41 1015.9
20260502215902 8 329 8.0 11.3 0.00 0.00 0.00 43 1015.9
20260502214401 8 251 6.4 11.3 0.00 0.00 0.00 45 1015.9
20260502212901 8 35 4.8 12.9 0.00 0.00 0.00 45 1015.9
20260502211401 8 8 4.8 11.3 0.00 0.00 0.00 43 1016.3
20260502205901 9 311 8.0 17.7 0.00 0.00 0.00 43 1016.3
20260502204402 8 301 12.9 14.5 0.00 0.00 0.00 43 1016.3
20260502202902 9 302 8.0 14.5 0.00 0.00 0.00 41 1016.3
20260502201401 9 313 9.7 14.5 0.00 0.00 0.00 40 1016.6
20260502195902 8 318 6.4 11.3 0.00 0.00 0.00 42 1016.6
20260502194402 9 326 11.3 16.1 0.00 0.00 0.00 40 1016.9
20260502191902 8 296 16.1 17.7 0.00 0.00 0.00 41 1017.3
20260502190402 8 309 11.3 16.1 0.00 0.00 0.00 39 1017.3